"Timestamp","TZ","WindDir_Mean (deg)","WindSpd_Mean (km/h)","WindSpd_Min (km/h)","WindSpd_Max (km/h)","Temp_Mean (deg)","RH_Mean (%)","MSLP_Mean (hPa)","Rain_Acc (mm)","Rain_Intensity (mm/h)","Hail_Acc (hits/cm2)","Hail_Intensity (hits/cm2hr)","Solar_Mean (W/m2)"
2018/04/24 00:00:00.000,n,246,2.88,2.52,3.6,18.5,74.2,1016.62,0,0,0,0,0.031319
2018/04/24 00:01:00.000,n,312,2.88,1.8,3.96,18.5,74.9,1016.72,0,0,0,0,0.028725
2018/04/24 00:02:00.000,n,261,1.8,1.8,2.16,18.5,74.3,1016.72,0,0,0,0,0.028725
2018/04/24 00:03:00.000,n,234,2.16,1.44,2.52,18.5,74.4,1016.72,0,0,0,0,0.027847
2018/04/24 00:04:00.006,n,212,1.8,1.08,2.52,18.4,74.6,1016.72,0,0,0,0,0.026131
2018/04/24 00:05:00.003,n,218,2.16,1.8,2.52,18.4,74.5,1016.72,0,0,0,0,0.030479
2018/04/24 00:06:00.000,n,227,2.88,2.52,3.24,18.4,74.5,1016.72,0,0,0,0,0.029602
2018/04/24 00:07:00.000,n,242,3.24,2.88,3.96,18.4,74.5,1016.72,0,0,0,0,0.027847
2018/04/24 00:08:00.011,n,13,0.72,0.36,1.08,18.4,74.6,1016.72,0,0,0,0,0.026131
2018/04/24 00:09:00.008,n,228,2.16,2.16,2.16,18.4,74.6,1016.62,0,0,0,0,0.027847
2018/04/24 00:10:00.000,n,258,2.88,2.16,3.6,18.4,75,1016.62,0,0,0,0,0.026131
2018/04/24 00:11:00.001,n,247,1.44,1.08,1.44,18.4,74.8,1016.62,0,0,0,0,0.026131
2018/04/24 00:12:00.000,n,194,2.52,2.16,3.24,18.4,74.6,1016.62,0,0,0,0,0.025253
2018/04/24 00:13:00.000,n,278,3.6,3.24,4.32,18.3,75.2,1016.62,0,0,0,0,0.02697
2018/04/24 00:14:00.000,n,268,3.96,3.6,4.32,18.3,74.8,1016.62,0,0,0,0,0.028725
2018/04/24 00:15:00.006,n,263,3.96,3.24,4.68,18.3,74.8,1016.62,0,0,0,0,0.024338
2018/04/24 00:16:00.005,n,259,4.68,4.32,5.04,18.3,74.9,1016.62,0,0,0,0,0.026131
2018/04/24 00:17:00.001,n,243,3.96,3.6,4.32,18.3,75,1016.62,0,0,0,0,0.029602
2018/04/24 00:18:00.014,n,241,3.24,2.16,3.6,18.3,75.2,1016.62,0,0,0,0,0.022621
2018/04/24 00:19:00.000,n,240,4.32,3.6,4.68,18.3,75.3,1016.62,0,0,0,0,0.027008
2018/04/24 00:20:00.000,n,241,2.88,2.16,3.96,18.3,75.3,1016.52,0,0,0,0,0.035706
2018/04/24 00:21:00.000,n,206,3.6,3.24,3.96,18.3,75.4,1016.52,0,0,0,0,0.034828
2018/04/24 00:22:00.004,n,234,5.04,4.68,5.4,18.3,75.8,1016.52,0,0,0,0,0.040054
2018/04/24 00:23:00.001,n,262,5.04,4.68,5.4,18.3,75.9,1016.52,0,0,0,0,0.035706
2018/04/24 00:24:00.000,n,243,3.6,3.24,3.96,18.3,75.3,1016.52,0,0,0,0,0.033951
2018/04/24 00:25:00.012,n,273,6.48,6.12,7.2,18.2,75,1016.52,0,0,0,0,0.033951
2018/04/24 00:26:00.009,n,249,6.84,6.48,7.2,18.2,74.8,1016.52,0,0,0,0,0.027847
2018/04/24 00:27:00.006,n,285,4.68,4.32,6.12,18.1,75.2,1016.52,0,0,0,0,0.040054
2018/04/24 00:28:00.000,n,242,3.96,2.88,5.4,18.2,74.6,1016.52,0,0,0,0,0.031357
2018/04/24 00:29:00.000,n,236,3.6,3.24,4.32,18.1,74.4,1016.52,0,0,0,0,0.033073
2018/04/24 00:30:00.000,n,233,3.96,3.24,4.68,18.1,74.4,1016.52,0,0,0,0,0.033951
2018/04/24 00:31:00.000,n,227,3.96,3.6,4.68,18.1,74.8,1016.52,0,0,0,0,0.029602
2018/04/24 00:32:00.007,n,258,6.12,6.12,6.48,18.1,74.8,1016.52,0,0,0,0,0.031357
2018/04/24 00:33:00.004,n,264,7.56,5.76,10.08,18.2,74.7,1016.52,0,0,0,0,0.029602
2018/04/24 00:34:00.001,n,243,7.56,6.84,7.92,18.2,74.6,1016.52,0,0,0,0,0.035706
2018/04/24 00:35:00.014,n,226,4.32,3.6,4.68,18.2,74.1,1016.52,0,0,0,0,0.032234
2018/04/24 00:36:00.011,n,250,3.96,3.6,4.32,18.1,74,1016.52,0,0,0,0,0.033073
2018/04/24 00:37:00.000,n,226,3.24,2.52,3.6,18.1,73.9,1016.52,0,0,0,0,0.032234
2018/04/24 00:38:00.000,n,198,1.44,1.44,1.8,18.1,73.8,1016.52,0,0,0,0,0.031357
2018/04/24 00:39:00.004,n,273,4.32,3.96,5.04,18.1,73.9,1016.52,0,0,0,0,0.031357
2018/04/24 00:40:00.001,n,273,5.76,4.68,6.48,18.1,73.9,1016.52,0,0,0,0,0.033951
2018/04/24 00:41:00.000,n,267,8.28,7.2,9.36,18.1,73.7,1016.52,0,0,0,0,0.033073
2018/04/24 00:42:00.000,n,252,6.48,6.12,6.48,18.1,73.6,1016.52,0,0,0,0,0.032234
2018/04/24 00:43:00.009,n,260,5.76,5.4,6.48,18.1,73.5,1016.52,0,0,0,0,0.032234
2018/04/24 00:44:00.006,n,274,5.76,5.4,6.12,18.1,73.5,1016.52,0,0,0,0,0.033073
2018/04/24 00:45:00.003,n,252,5.76,5.4,6.84,18.1,73.3,1016.52,0,0,0,0,0.031357
2018/04/24 00:46:00.000,n,242,6.12,4.32,8.64,18.1,73.4,1016.52,0,0,0,0,0.032234
2018/04/24 00:47:00.000,n,248,6.84,6.12,7.56,18.1,73.4,1016.42,0,0,0,0,0.026131
2018/04/24 00:48:00.000,n,257,6.48,5.76,6.84,18.1,73.5,1016.42,0,0,0,0,0.029602
2018/04/24 00:49:00.000,n,263,5.4,3.24,6.84,18.1,73.4,1016.42,0,0,0,0,0.032234
2018/04/24 00:50:00.006,n,261,6.84,5.76,8.28,18.2,73.4,1016.42,0,0,0,0,0.027008
2018/04/24 00:51:00.003,n,255,5.76,5.4,6.48,18.1,73.1,1016.42,0,0,0,0,0.029602
2018/04/24 00:52:00.001,n,261,5.76,5.76,6.12,18.1,73.1,1016.42,0,0,0,0,0.027847
2018/04/24 00:53:00.000,n,253,3.6,1.44,5.04,18.1,73,1016.42,0,0,0,0,0.026131
2018/04/24 00:54:00.011,n,272,8.64,8.28,9.36,18.1,73,1016.42,0,0,0,0,0.024376
2018/04/24 00:55:00.000,n,256,3.6,3.24,3.96,18.1,72.8,1016.42,0,0,0,0,0.029602
2018/04/24 00:56:00.000,n,255,6.48,4.32,7.56,18.1,72.7,1016.42,0,0,0,0,0.030479
2018/04/24 00:57:00.003,n,268,7.92,6.48,8.64,18.1,72.6,1016.42,0,0,0,0,0.030479
2018/04/24 00:58:00.000,n,254,6.12,5.76,6.84,18.1,72.5,1016.42,0,0,0,0,0.027847
2018/04/24 00:59:00.000,n,245,6.84,5.76,7.92,18.1,72.4,1016.42,0,0,0,0,0.025253
2018/04/24 01:00:00.000,n,244,4.68,3.96,5.4,18.2,72.5,1016.42,0,0,0,0,0.026131
2018/04/24 01:01:00.009,n,241,4.68,3.6,5.76,18.2,72.8,1016.42,0,0,0,0,0.029602
2018/04/24 01:02:00.006,n,237,4.68,3.6,5.76,18.2,72.8,1016.42,0,0,0,0,0.026131
2018/04/24 01:03:00.002,n,241,6.12,4.68,8.28,18.2,72.6,1016.42,0,0,0,0,0.028725
2018/04/24 01:04:00.000,n,234,2.52,2.16,2.88,18.2,72.5,1016.42,0,0,0,0,0.025253
2018/04/24 01:05:00.000,n,276,4.32,3.6,4.68,18.2,72.8,1016.42,0,0,0,0,0.029602
2018/04/24 01:06:00.000,n,263,4.32,3.96,4.68,18.2,72.3,1016.42,0,0,0,0,0.027008
2018/04/24 01:07:00.000,n,206,2.52,2.16,3.24,18.2,72.3,1016.42,0,0,0,0,0.026131
2018/04/24 01:08:00.003,n,235,2.16,1.8,2.52,18.2,72.3,1016.42,0,0,0,0,0.027847
2018/04/24 01:09:00.001,n,267,3.6,2.52,5.4,18.2,72.4,1016.42,0,0,0,0,0.025253
2018/04/24 01:10:00.000,n,283,3.24,2.88,3.6,18.1,72.4,1016.42,0,0,0,0,0.024376
2018/04/24 01:11:00.012,n,258,1.44,1.44,1.8,18.1,72.7,1016.42,0,0,0,0,0.026131
2018/04/24 01:12:00.009,n,283,2.88,1.8,3.6,18.1,73.1,1016.42,0,0,0,0,0.027008
2018/04/24 01:13:00.000,n,245,2.16,1.8,2.88,18.2,73.1,1016.42,0,0,0,0,0.025253
2018/04/24 01:14:00.002,n,221,1.44,1.08,1.44,18.1,72.9,1016.42,0,0,0,0,0.027847
2018/04/24 01:15:00.000,n,239,2.88,2.52,3.6,18.1,72.9,1016.32,0,0,0,0,0.027847
2018/04/24 01:16:00.000,n,237,5.76,4.68,6.84,18.1,73.1,1016.32,0,0,0,0,0.032196
2018/04/24 01:17:00.006,n,211,2.88,2.52,3.24,18.1,73.1,1016.32,0,0,0,0,0.033913
2018/04/24 01:18:00.003,n,255,3.24,2.16,4.68,18.1,73.7,1016.32,0,0,0,0,0.033913
2018/04/24 01:19:00.000,n,276,5.76,5.04,6.48,18.2,73.5,1016.32,0,0,0,0,0.033913
2018/04/24 01:20:00.013,n,239,2.88,2.16,3.6,18.1,73.2,1016.32,0,0,0,0,0.030441
2018/04/24 01:21:00.010,n,257,5.04,3.96,6.12,18.1,73.1,1016.32,0,0,0,0,0.031357
2018/04/24 01:22:00.000,n,270,5.4,4.32,6.12,18.1,73.4,1016.22,0,0,0,0,0.033073
2018/04/24 01:23:00.000,n,252,4.32,4.32,4.68,18.1,73.1,1016.32,0,0,0,0,0.030441
2018/04/24 01:24:00.001,n,248,5.4,5.04,5.76,18.1,72.9,1016.22,0,0,0,0,0.029564
2018/04/24 01:25:00.000,n,258,5.04,4.68,5.4,18.1,73,1016.22,0,0,0,0,0.031357
2018/04/24 01:26:00.000,n,261,5.4,5.04,5.76,18.1,73,1016.22,0,0,0,0,0.032196
2018/04/24 01:27:00.009,n,266,5.04,4.68,6.84,18.1,73.6,1016.22,0,0,0,0,0.029564
2018/04/24 01:28:00.006,n,254,4.32,3.6,4.68,18.1,73.1,1016.22,0,0,0,0,0.027847
2018/04/24 01:29:00.003,n,308,1.8,0.72,5.04,18.1,73,1016.22,0,0,0,0,0.031357
2018/04/24 01:30:00.001,n,246,2.16,0.36,2.88,18,72.9,1016.22,0,0,0,0,0.030441
2018/04/24 01:31:00.000,n,326,1.08,0.36,1.8,18,73.1,1016.22,0,0,0,0,0.031357
2018/04/24 01:32:00.000,n,153,1.08,0.36,1.44,18,73,1016.22,0,0,0,0,0.030441
2018/04/24 01:33:00.000,n,221,1.44,1.44,2.16,18,73.3,1016.22,0,0,0,0,0.031357
2018/04/24 01:34:00.006,n,247,3.24,2.88,3.24,18,73.1,1016.22,0,0,0,0,0.031357
2018/04/24 01:35:00.003,n,262,3.96,3.24,4.68,18,72.9,1016.22,0,0,0,0,0.033913
2018/04/24 01:36:00.000,n,266,4.68,3.96,5.04,18,72.9,1016.22,0,0,0,0,0.033073
2018/04/24 01:37:00.000,n,266,5.76,4.68,6.84,18,73,1016.22,0,0,0,0,0.027847
2018/04/24 01:38:00.009,n,233,4.68,4.68,5.04,18,73,1016.22,0,0,0,0,0.029564
2018/04/24 01:39:00.007,n,277,2.88,2.88,3.6,18,73.1,1016.22,0,0,0,0,0.02697
2018/04/24 01:40:00.000,n,259,5.4,4.68,6.12,18,73,1016.22,0,0,0,0,0.031357
2018/04/24 01:41:00.000,n,239,3.24,2.88,3.6,17.9,73,1016.22,0,0,0,0,0.032196
2018/04/24 01:42:00.000,n,259,6.12,5.4,6.48,17.9,73.2,1016.22,0,0,0,0,0.031357
2018/04/24 01:43:00.000,n,253,3.6,2.88,3.96,18,73.4,1016.22,0,0,0,0,0.031357
2018/04/24 01:44:00.007,n,240,3.24,2.88,3.24,18,73.4,1016.12,0,0,0,0,0.028725
2018/04/24 01:45:00.005,n,202,3.24,2.52,4.32,17.9,73.3,1016.22,0,0,0,0,0.031357
2018/04/24 01:46:00.002,n,256,5.04,2.16,7.2,17.9,73.6,1016.22,0,0,0,0,0.031357
2018/04/24 01:47:00.000,n,197,1.8,1.8,2.16,18,73.8,1016.22,0,0,0,0,0.027847
2018/04/24 01:48:00.013,n,143,2.52,2.16,2.88,18,73.6,1016.12,0,0,0,0,0.029564
2018/04/24 01:49:00.000,n,272,2.52,1.08,3.6,18,73.9,1016.12,0,0,0,0,0.027847
2018/04/24 01:50:00.000,n,146,3.24,3.24,3.24,18,74.4,1016.12,0,0,0,0,0.02697
2018/04/24 01:51:00.003,n,163,1.8,0.72,2.16,18,74.8,1016.12,0,0,0,0,0.028725
2018/04/24 01:52:00.001,n,162,2.52,2.16,2.88,17.9,75.3,1016.12,0,0,0,0,0.027847
2018/04/24 01:53:00.000,n,160,1.08,0.36,1.44,17.9,75.7,1016.12,0,0,0,0,0.023499
2018/04/24 01:54:00.000,n,264,2.52,1.44,3.24,17.9,75.7,1016.12,0,0,0,0,0.02697
2018/04/24 01:55:00.008,n,216,4.32,3.6,4.68,17.8,76,1016.12,0,0,0,0,0.023499
2018/04/24 01:56:00.005,n,165,3.6,3.24,3.96,17.8,76.5,1016.12,0,0,0,0,0.025215
2018/04/24 01:57:00.002,n,178,3.96,3.6,4.32,17.8,76.9,1016.12,0,0,0,0,0.028725
2018/04/24 01:58:00.001,n,166,3.96,3.6,3.96,17.7,77.2,1016.12,0,0,0,0,0.025215
2018/04/24 01:59:00.000,n,177,3.6,2.88,3.96,17.7,77.4,1016.12,0,0,0,0,0.025215
2018/04/24 02:00:00.000,n,170,3.6,3.24,3.96,17.6,77.6,1016.02,0,0,0,0,0.022621
2018/04/24 02:01:00.000,n,167,4.32,3.24,4.68,17.6,77.8,1016.02,0,0,0,0,0.023499
2018/04/24 02:02:00.008,n,166,3.96,3.6,4.32,17.5,78.1,1016.02,0,0,0,0,0.026093
2018/04/24 02:03:00.006,n,142,3.96,2.88,4.68,17.5,78.1,1016.12,0,0,0,0,0.022621
2018/04/24 02:04:00.003,n,164,4.32,3.96,5.04,17.4,78.2,1016.12,0,0,0,0,0.020866
2018/04/24 02:05:00.000,n,157,4.32,3.24,4.68,17.4,78.2,1016.02,0,0,0,0,0.020866
2018/04/24 02:06:00.014,n,188,2.16,1.8,2.52,17.3,78.3,1016.02,0,0,0,0,0.026093
2018/04/24 02:07:00.000,n,170,3.6,3.24,4.32,17.3,78.5,1016.02,0,0,0,0,0.019989
2018/04/24 02:08:00.000,n,146,2.88,2.88,2.88,17.2,78.6,1016.02,0,0,0,0,0.021744
2018/04/24 02:09:00.000,n,167,2.88,2.52,3.24,17.2,78.8,1016.02,0,0,0,0,0.021744
2018/04/24 02:10:00.001,n,153,3.24,2.88,3.96,17.2,78.9,1015.92,0,0,0,0,0.021744
2018/04/24 02:11:00.000,n,161,6.12,5.76,6.48,17.1,78.9,1015.92,0,0,0,0,0.025215
2018/04/24 02:12:00.000,n,164,2.88,1.8,4.32,17.1,79,1015.92,0,0,0,0,0.021744
2018/04/24 02:13:00.009,n,182,2.88,0.72,5.4,17.1,79.2,1015.92,0,0,0,0,0.025215
2018/04/24 02:14:00.007,n,181,2.52,2.52,2.88,17.1,79.3,1015.92,0,0,0,0,0.020866
2018/04/24 02:15:00.004,n,171,2.88,2.88,3.24,17.1,79.3,1015.82,0,0,0,0,0.020866
2018/04/24 02:16:00.001,n,210,2.88,1.8,3.6,17.1,79.3,1015.82,0,0,0,0,0.020866
2018/04/24 02:17:00.000,n,172,3.6,3.6,3.96,17.1,79.4,1015.82,0,0,0,0,0.016518
2018/04/24 02:18:00.000,n,201,2.16,1.44,2.88,17.1,79.3,1015.82,0,0,0,0,0.017395
2018/04/24 02:19:00.000,n,172,1.8,1.44,2.52,17.1,79.3,1015.82,0,0,0,0,0.022621
2018/04/24 02:20:00.005,n,171,1.8,1.44,2.52,17.1,79.4,1015.82,0,0,0,0,0.019989
2018/04/24 02:21:00.003,n,215,1.8,1.44,2.16,17.1,79.4,1015.82,0,0,0,0,0.027885
2018/04/24 02:22:00.012,n,146,0.72,0.36,1.08,17.1,79.5,1015.82,0,0,0,0,0.034828
2018/04/24 02:23:00.009,n,266,2.52,2.16,2.88,17.1,79.5,1015.82,0,0,0,0,0.028725
2018/04/24 02:24:00.006,n,252,3.24,2.88,3.24,17.1,79.5,1015.82,0,0,0,0,0.028725
2018/04/24 02:25:00.000,n,229,4.32,3.96,4.32,17.1,79.4,1015.82,0,0,0,0,0.030479
2018/04/24 02:26:00.001,n,230,3.6,2.52,3.96,17.1,79.5,1015.82,0,0,0,0,0.02697
2018/04/24 02:27:00.000,n,234,5.04,3.96,5.04,17.1,79.4,1015.82,0,0,0,0,0.035667
2018/04/24 02:28:00.000,n,220,2.52,1.44,3.24,17.1,79.2,1015.72,0,0,0,0,0.02697
2018/04/24 02:29:00.008,n,244,4.68,4.32,5.04,17.1,79.1,1015.72,0,0,0,0,0.028725
2018/04/24 02:30:00.005,n,354,1.8,0.72,2.88,17.1,79.5,1015.72,0,0,0,0,0.034828
2018/04/24 02:31:00.002,n,233,1.8,1.8,2.16,17.1,79.3,1015.72,0,0,0,0,0.029602
2018/04/24 02:32:00.000,n,219,2.16,1.8,2.16,17.1,79,1015.72,0,0,0,0,0.030479
2018/04/24 02:33:00.014,n,211,5.4,5.04,5.76,17.1,78.8,1015.72,0,0,0,0,0.027885
2018/04/24 02:34:00.000,n,245,3.24,2.52,3.6,17.1,78.9,1015.72,0,0,0,0,0.026131
2018/04/24 02:35:00.000,n,248,4.68,4.32,5.04,17.1,78.8,1015.72,0,0,0,0,0.025253
2018/04/24 02:36:00.000,n,217,4.32,2.88,5.4,17.1,78.6,1015.72,0,0,0,0,0.022621
2018/04/24 02:37:00.004,n,218,1.8,1.44,1.8,17.1,78.5,1015.62,0,0,0,0,0.026131
2018/04/24 02:38:00.001,n,210,2.16,2.16,2.52,17.1,78.4,1015.72,0,0,0,0,0.02697
2018/04/24 02:39:00.000,n,215,2.16,1.08,2.88,17.1,78.3,1015.62,0,0,0,0,0.01915
2018/04/24 02:40:00.011,n,192,3.6,3.6,3.96,17.1,78.3,1015.62,0,0,0,0,0.027885
2018/04/24 02:41:00.008,n,230,2.88,2.88,3.6,17.1,78.3,1015.62,0,0,0,0,0.026131
2018/04/24 02:42:00.006,n,153,4.32,3.96,4.68,17.2,78.4,1015.62,0,0,0,0,0.023537
2018/04/24 02:43:00.000,n,161,5.04,4.32,6.12,17.2,78.8,1015.62,0,0,0,0,0.021744
2018/04/24 02:44:00.000,n,187,3.96,3.24,4.32,17.2,78.9,1015.62,0,0,0,0,0.022621
2018/04/24 02:45:00.000,n,192,1.8,1.08,3.24,17.1,79.1,1015.62,0,0,0,0,0.020905
2018/04/24 02:46:00.000,n,283,2.16,0.36,3.6,17.1,79.2,1015.62,0,0,0,0,0.026131
2018/04/24 02:47:00.009,n,249,2.52,1.08,3.24,17.1,79.3,1015.62,0,0,0,0,0.023537
2018/04/24 02:48:00.006,n,157,3.24,2.88,3.6,17.1,79.3,1015.62,0,0,0,0,0.025253
2018/04/24 02:49:00.004,n,114,0.72,0.36,1.8,17.1,79.3,1015.62,0,0,0,0,0.027885
2018/04/24 02:50:00.000,n,175,3.96,3.24,4.32,17.1,79.3,1015.62,0,0,0,0,0.021744
2018/04/24 02:51:00.014,n,177,3.24,2.52,3.96,17.1,79.4,1015.62,0,0,0,0,0.018272
2018/04/24 02:52:00.000,n,214,0.72,0,1.08,17.1,79.4,1015.62,0,0,0,0,0.020905
2018/04/24 02:53:00.000,n,175,3.6,3.24,3.96,17,79.4,1015.62,0,0,0,0,0.021744
2018/04/24 02:54:00.000,n,173,4.32,3.6,4.68,17,79.5,1015.62,0,0,0,0,0.024376
2018/04/24 02:55:00.002,n,176,4.68,4.32,5.04,17,79.6,1015.62,0,0,0,0,0.01915
2018/04/24 02:56:00.000,n,256,6.48,5.4,9.72,17,79.5,1015.62,0,0,0,0,0.023537
2018/04/24 02:57:00.000,n,172,2.16,1.44,2.88,17,79.8,1015.62,0,0,0,0,0.01915
2018/04/24 02:58:00.010,n,250,5.04,4.32,5.76,17,79.4,1015.52,0,0,0,0,0.024376
2018/04/24 02:59:00.004,n,168,4.32,3.96,5.04,17,79.4,1015.52,0,0,0,0,0.027008
2018/04/24 03:00:00.002,n,201,2.88,2.16,3.24,17,79.4,1015.52,0,0,0,0,0.026131
2018/04/24 03:01:00.000,n,256,2.52,2.16,2.88,17,79.4,1015.52,0,0,0,0,0.024376
2018/04/24 03:02:00.000,n,275,3.24,2.52,3.96,17,79.3,1015.52,0,0,0,0,0.027008
2018/04/24 03:03:00.000,n,248,1.08,0.72,1.44,17,79.3,1015.52,0,0,0,0,0.023537
2018/04/24 03:04:00.005,n,204,3.24,0.72,3.96,17,79.3,1015.52,0,0,0,0,0.025291
2018/04/24 03:05:00.003,n,243,1.8,1.44,2.16,17,79.3,1015.52,0,0,0,0,0.027885
2018/04/24 03:06:00.000,n,133,1.8,1.44,2.52,17,79.3,1015.52,0,0,0,0,0.027885
2018/04/24 03:07:00.012,n,174,1.44,1.44,1.8,17,79.4,1015.52,0,0,0,0,0.027008
2018/04/24 03:08:00.009,n,206,2.52,2.16,2.88,17,79.4,1015.52,0,0,0,0,0.026131
2018/04/24 03:09:00.008,n,244,6.12,5.76,6.48,17,79.3,1015.52,0,0,0,0,0.023537
2018/04/24 03:10:00.000,n,218,3.6,3.24,4.32,17,79.3,1015.62,0,0,0,0,0.027885
2018/04/24 03:11:00.002,n,191,2.52,2.16,2.88,17,79.3,1015.62,0,0,0,0,0.027008
2018/04/24 03:12:00.000,n,250,3.24,2.52,3.96,17,79.6,1015.62,0,0,0,0,0.027008
2018/04/24 03:13:00.000,n,256,5.76,5.4,6.48,17,79.4,1015.62,0,0,0,0,0.026131
2018/04/24 03:14:00.000,n,251,3.96,3.24,4.32,17,79.2,1015.62,0,0,0,0,0.027008
2018/04/24 03:15:00.006,n,264,4.32,3.6,4.68,17,79.3,1015.62,0,0,0,0,0.020027
2018/04/24 03:16:00.003,n,263,5.76,5.4,6.12,17,79.1,1015.62,0,0,0,0,0.025291
2018/04/24 03:17:00.002,n,226,3.6,3.24,3.6,17,79,1015.62,0,0,0,0,0.024376
2018/04/24 03:18:00.015,n,222,4.68,3.24,5.4,17,79.3,1015.62,0,0,0,0,0.020943
2018/04/24 03:19:00.000,n,251,5.4,4.68,6.12,17,79,1015.62,0,0,0,0,0.021782
2018/04/24 03:20:00.000,n,261,6.84,6.48,7.56,17,78.7,1015.62,0,0,0,0,0.020027
2018/04/24 03:21:00.000,n,250,5.4,4.68,6.12,17,78.5,1015.52,0,0,0,0,0.020943
2018/04/24 03:22:00.003,n,230,5.04,4.68,5.4,17,78.6,1015.62,0,0,0,0,0.020027
2018/04/24 03:23:00.001,n,233,5.4,5.04,6.12,17,78.6,1015.62,0,0,0,0,0.025291
2018/04/24 03:24:00.000,n,261,5.76,3.6,8.28,17,78.8,1015.62,0,0,0,0,0.020943
2018/04/24 03:25:00.011,n,169,2.52,1.8,3.24,17,78.7,1015.62,0,0,0,0,0.01915
2018/04/24 03:26:00.007,n,253,5.4,2.88,7.2,17,78.7,1015.62,0,0,0,0,0.032196
2018/04/24 03:27:00.000,n,211,1.8,1.8,2.16,17.1,78.5,1015.62,0,0,0,0,0.035667
2018/04/24 03:28:00.000,n,245,1.8,1.8,2.16,17.1,78.3,1015.62,0,0,0,0,0.035667
2018/04/24 03:29:00.000,n,217,3.24,2.16,4.32,17,78.1,1015.62,0,0,0,0,0.033913
2018/04/24 03:30:00.000,n,256,3.96,3.24,4.32,17,78.4,1015.62,0,0,0,0,0.032196
2018/04/24 03:31:00.005,n,224,3.6,2.88,4.68,17,78.1,1015.62,0,0,0,0,0.033073
2018/04/24 03:32:00.003,n,281,5.76,5.04,6.48,17,77.9,1015.62,0,0,0,0,0.034828
2018/04/24 03:33:00.000,n,255,4.68,4.32,5.04,17,77.7,1015.62,0,0,0,0,0.035667
2018/04/24 03:34:00.000,n,254,5.04,4.68,6.12,17,77.6,1015.62,0,0,0,0,0.038261
2018/04/24 03:35:00.010,n,270,7.2,6.48,9,17,77.5,1015.62,0,0,0,0,0.031319
2018/04/24 03:36:00.007,n,224,2.88,1.44,5.4,17,77.4,1015.62,0,0,0,0,0.032196
2018/04/24 03:37:00.000,n,251,8.28,7.92,8.64,17,77.3,1015.62,0,0,0,0,0.032196
2018/04/24 03:38:00.000,n,260,8.28,7.92,8.64,17,77.2,1015.62,0,0,0,0,0.036545
2018/04/24 03:39:00.000,n,231,4.68,3.96,5.04,17.1,77.3,1015.62,0,0,0,0,0.039177
2018/04/24 03:40:00.000,n,252,7.56,7.2,7.92,17.1,77,1015.62,0,0,0,0,0.035667
2018/04/24 03:41:00.007,n,250,5.4,5.04,6.12,17.1,77.1,1015.72,0,0,0,0,0.033913
2018/04/24 03:42:00.004,n,235,4.68,3.96,5.76,17.1,76.9,1015.72,0,0,0,0,0.030479
2018/04/24 03:43:00.001,n,239,3.96,3.24,4.68,17.1,76.6,1015.72,0,0,0,0,0.033913
2018/04/24 03:44:00.000,n,266,7.2,6.84,7.92,17.1,76.5,1015.72,0,0,0,0,0.033073
2018/04/24 03:45:00.011,n,262,6.12,0.72,7.56,17.1,76.4,1015.72,0,0,0,0,0.033073
2018/04/24 03:46:00.000,n,264,6.48,6.12,7.2,17.1,76.3,1015.62,0,0,0,0,0.030479
2018/04/24 03:47:00.000,n,244,6.84,6.48,7.2,17.1,76.3,1015.72,0,0,0,0,0.035667
2018/04/24 03:48:00.002,n,249,4.32,3.6,5.04,17.1,76.3,1015.62,0,0,0,0,0.032196
2018/04/24 03:49:00.000,n,262,2.16,0.72,2.88,17.1,76.2,1015.62,0,0,0,0,0.033073
2018/04/24 03:50:00.000,n,266,7.92,6.12,9,17.1,76.2,1015.62,0,0,0,0,0.033913
2018/04/24 03:51:00.009,n,256,5.4,5.04,5.76,17.1,76.2,1015.72,0,0,0,0,0.033913
2018/04/24 03:52:00.006,n,245,5.4,4.68,6.12,17.2,76.7,1015.72,0,0,0,0,0.029564
2018/04/24 03:53:00.003,n,250,6.12,5.76,7.2,17.2,76.3,1015.72,0,0,0,0,0.036545
2018/04/24 03:54:00.001,n,246,6.48,6.12,7.2,17.2,76.2,1015.72,0,0,0,0,0.034828
2018/04/24 03:55:00.000,n,256,7.2,6.84,7.92,17.2,76.4,1015.62,0,0,0,0,0.030479
2018/04/24 03:56:00.000,n,241,5.76,5.76,6.12,17.2,76.2,1015.62,0,0,0,0,0.033913
2018/04/24 03:57:00.000,n,258,6.48,6.12,7.2,17.2,76.3,1015.62,0,0,0,0,0.033913
2018/04/24 03:58:00.006,n,267,3.6,3.6,3.96,17.2,76.3,1015.62,0,0,0,0,0.029564
2018/04/24 03:59:00.002,n,252,4.32,3.6,5.04,17.1,76.2,1015.62,0,0,0,0,0.031319
2018/04/24 04:00:00.000,n,253,2.52,0.72,3.6,17.1,76.3,1015.72,0,0,0,0,0.035667
2018/04/24 04:01:00.012,n,258,5.76,5.04,5.76,17.1,76.3,1015.72,0,0,0,0,0.032196
2018/04/24 04:02:00.009,n,262,7.2,6.84,7.92,17.1,76.3,1015.72,0,0,0,0,0.031319
2018/04/24 04:03:00.007,n,238,1.8,1.8,2.16,17.1,76.3,1015.72,0,0,0,0,0.031319
2018/04/24 04:04:00.000,n,243,2.88,2.52,2.88,17.1,76.3,1015.72,0,0,0,0,0.033073
2018/04/24 04:05:00.000,n,205,1.44,0.72,2.16,17.1,76.3,1015.72,0,0,0,0,0.033073
2018/04/24 04:06:00.000,n,262,4.68,4.32,5.04,17.1,76.4,1015.72,0,0,0,0,0.033073
2018/04/24 04:07:00.000,n,207,0.72,0.72,1.44,17.1,76.7,1015.72,0,0,0,0,0.033073
2018/04/24 04:08:00.000,n,266,4.32,2.88,5.76,17.1,76.6,1015.72,0,0,0,0,0.027847
2018/04/24 04:09:00.006,n,219,2.16,1.44,2.88,17.1,76.7,1015.72,0,0,0,0,0.034828
2018/04/24 04:10:00.004,n,250,5.4,2.88,6.48,17.1,76.9,1015.72,0,0,0,0,0.034828
2018/04/24 04:11:00.001,n,232,4.68,3.96,5.04,17.1,77.1,1015.72,0,0,0,0,0.031319
2018/04/24 04:12:00.014,n,233,2.16,1.8,2.88,17.1,76.9,1015.72,0,0,0,0,0.030479
2018/04/24 04:13:00.000,n,238,6.12,3.6,8.28,17.1,77.3,1015.72,0,0,0,0,0.031319
2018/04/24 04:14:00.000,n,274,3.6,1.8,4.68,17.1,77.7,1015.72,0,0,0,0,0.036545
2018/04/24 04:15:00.000,n,259,3.6,2.52,5.04,17.1,77.6,1015.72,0,0,0,0,0.033913
2018/04/24 04:16:00.003,n,247,3.96,3.6,5.4,17.1,77.5,1015.72,0,0,0,0,0.034828
2018/04/24 04:17:00.001,n,252,2.52,2.16,2.88,17.1,77.5,1015.72,0,0,0,0,0.036545
2018/04/24 04:18:00.000,n,231,1.44,1.08,1.8,17,77.5,1015.82,0,0,0,0,0.033913
2018/04/24 04:19:00.010,n,230,2.52,1.8,2.88,17,77.5,1015.82,0,0,0,0,0.031319
2018/04/24 04:20:00.007,n,247,1.8,1.8,2.16,17,77.5,1015.82,0,0,0,0,0.027847
2018/04/24 04:21:00.004,n,233,2.52,2.16,2.88,17,77.6,1015.82,0,0,0,0,0.029564
2018/04/24 04:22:00.001,n,258,2.52,2.16,3.24,17,77.6,1015.82,0,0,0,0,0.032196
2018/04/24 04:23:00.000,n,249,2.52,2.16,2.88,17,77.6,1015.82,0,0,0,0,0.029564
2018/04/24 04:24:00.000,n,239,3.96,3.6,4.68,17,78.2,1015.82,0,0,0,0,0.034828
2018/04/24 04:25:00.000,n,259,4.32,3.96,5.04,17,77.8,1015.82,0,0,0,0,0.032196
2018/04/24 04:26:00.005,n,252,5.76,4.68,6.48,17,77.9,1015.82,0,0,0,0,0.030479
2018/04/24 04:27:00.003,n,244,8.28,5.76,9,17,77.8,1015.82,0,0,0,0,0.033073
2018/04/24 04:28:00.000,n,240,6.84,5.76,7.92,17,77.6,1015.82,0,0,0,0,0.033073
2018/04/24 04:29:00.012,n,257,5.04,3.24,6.12,16.9,77.7,1015.82,0,0,0,0,0.031319
2018/04/24 04:30:00.009,n,265,5.04,4.68,6.12,16.9,77.8,1015.82,0,0,0,0,0.033073
2018/04/24 04:31:00.000,n,277,3.24,1.44,5.4,16.9,77.6,1015.82,0,0,0,0,0.032196
2018/04/24 04:32:00.002,n,261,6.48,5.4,6.48,16.9,77.5,1015.82,0,0,0,0,0.030479
2018/04/24 04:33:00.000,n,266,4.32,3.96,5.04,16.9,77.5,1015.82,0,0,0,0,0.035667
2018/04/24 04:34:00.000,n,261,3.24,2.52,3.96,16.9,77.4,1015.82,0,0,0,0,0.029564
2018/04/24 04:35:00.000,n,221,2.88,2.52,3.24,16.9,77.4,1015.82,0,0,0,0,0.032196
2018/04/24 04:36:00.008,n,250,5.76,4.68,6.84,16.9,77.4,1015.92,0,0,0,0,0.038261
2018/04/24 04:37:00.005,n,240,3.6,2.52,3.96,16.9,77.3,1015.82,0,0,0,0,0.031319
2018/04/24 04:38:00.002,n,249,3.24,1.8,4.32,16.9,77.3,1015.82,0,0,0,0,0.032196
2018/04/24 04:39:00.015,n,244,5.4,5.04,5.76,16.9,77.3,1015.82,0,0,0,0,0.032196
2018/04/24 04:40:00.000,n,260,5.04,4.32,5.04,16.9,77.2,1015.82,0,0,0,0,0.033913
2018/04/24 04:41:00.000,n,245,5.04,3.96,5.76,16.9,77.4,1015.82,0,0,0,0,0.029564
2018/04/24 04:42:00.000,n,249,7.92,6.84,9.72,16.9,77.7,1015.82,0,0,0,0,0.029564
2018/04/24 04:43:00.002,n,229,5.76,5.4,6.48,17,77.4,1015.82,0,0,0,0,0.032196
2018/04/24 04:44:00.000,n,235,3.24,1.8,5.4,17,77.6,1015.92,0,0,0,0,0.033073
2018/04/24 04:45:00.000,n,222,5.04,4.68,5.4,17,77.3,1015.92,0,0,0,0,0.031319
2018/04/24 04:46:00.010,n,245,6.12,5.4,6.48,17,77.1,1015.92,0,0,0,0,0.028725
2018/04/24 04:47:00.006,n,259,9.72,7.92,11.88,17,77,1015.92,0,0,0,0,0.027847
2018/04/24 04:48:00.004,n,258,9,8.64,9.72,17,76.9,1015.92,0,0,0,0,0.027847
2018/04/24 04:49:00.001,n,275,6.84,5.76,7.2,17,76.8,1015.92,0,0,0,0,0.029564
2018/04/24 04:50:00.000,n,263,10.440002,9,11.88,17,76.7,1015.92,0,0,0,0,0.031319
2018/04/24 04:51:00.000,n,259,6.12,5.76,6.84,17,76.7,1015.92,0,0,0,0,0.034828
2018/04/24 04:52:00.000,n,235,2.52,2.16,3.24,17,76.6,1015.92,0,0,0,0,0.027847
2018/04/24 04:53:00.006,n,228,1.8,1.08,2.16,17,76.6,1015.92,0,0,0,0,0.032196
2018/04/24 04:54:00.004,n,255,3.24,2.52,3.96,17,76.7,1015.92,0,0,0,0,0.02697
2018/04/24 04:55:00.000,n,266,4.32,3.96,4.68,17,76.6,1015.92,0,0,0,0,0.023499
2018/04/24 04:56:00.013,n,257,6.84,6.12,7.56,17,76.5,1015.92,0,0,0,0,0.029564
2018/04/24 04:57:00.010,n,250,3.6,3.24,3.96,17,76.5,1015.92,0,0,0,0,0.029564